Eilat, Israel

6:31 PM IDT on September 22, 2017 (GMT +0300)
Eilat

Weather History for LLET - July, 2013

Change the Weather History Date:

Saturday, July 27, 2013

  Actual Average Record
Temperature  
Mean Temperature 91 °F -  
Max Temperature 104 °F 102 °F 114 °F (2007)
Min Temperature 78 °F 81 °F 75 °F (2001)
Cooling Degree Days 26    
Growing Degree Days 41 (Base 50)    
Moisture  
Dew Point 38 °F    
Average Humidity 13    
Maximum Humidity 28    
Minimum Humidity 4    
Precipitation  
Precipitation 0.00 in -13.12 in - ()
Sea Level Pressure  
Sea Level Pressure 29.61 in    
Wind  
Wind Speed 7 mph ()    
Max Wind Speed 17 mph    
Max Gust Speed -    
Averages and records for this station are not official NWS values.
T = Trace of Precipitation, MM = Missing Value Source: Averaged Metar Reports

Daily Weather History Graph

Daily Weather History Graph

Search for Another Location

Airport or City:

Trip Planner

Search our weather history database for the weather conditions in past years. The results will help you decide how hot, cold, wet, or windy it might be!

Date:

Astronomy

Jul. 27, 2013 Rise Set
Actual Time 5:57 AM IDT 7:36 PM IDT
Civil Twilight 5:30 AM IDT 8:02 PM IDT
Nautical Twilight 4:59 AM IDT 8:33 PM IDT
Astronomical Twilight 4:26 AM IDT 9:06 PM IDT
Moon 10:42 PM IDT (7/27) 10:46 AM IDT (7/27)
Length of Visible Light 14h 31m
Length of Day
13h 38m
Waning Gibbous, 74% of the Moon is Illuminated
Jul 27
Waning Gibbous
Jul 29
Last Quarter
Aug 7
New
Aug 14
First Quarter
Aug 21
Full

Hourly Weather History & Observations

Time (IDT) Temp. Dew Point Humidity Pressure Visibility Wind Dir Wind Speed Gust Speed Precip Events Conditions
3:00 AM 87 °F 33 °F 7% 29.62 in - NNW 6.9 mph - -  
6:50 AM 78.8 °F 42.8 °F 28% 29.65 in - Variable 3.5 mph - N/A   Clear
7:50 AM 84.2 °F 41.0 °F 22% 29.65 in - NE 4.6 mph - N/A   Clear
8:50 AM 87.8 °F 39.2 °F 18% 29.65 in - NE 8.1 mph - N/A   Clear
9:00 AM 90 °F 38 °F 9% 29.64 in - NE 3.5 mph - -  
9:50 AM 91.4 °F 41.0 °F 17% 29.65 in - ENE 6.9 mph - N/A   Clear
10:50 AM 95.0 °F 39.2 °F 14% 29.65 in - ENE 8.1 mph - N/A   Clear
11:50 AM 96.8 °F 37.4 °F 13% 29.62 in - NE 10.4 mph - N/A   Clear
12:50 PM 98.6 °F 37.4 °F 12% 29.62 in - ENE 11.5 mph - N/A   Clear
1:50 PM 100.4 °F 37.4 °F 11% 29.59 in - ENE 9.2 mph - N/A   Clear
2:50 PM 102.2 °F 39.2 °F 11% 29.59 in - ENE 9.2 mph - N/A   Clear
3:00 PM 104 °F 34 °F 4% 29.57 in - NE 4.6 mph - -  
3:50 PM 104.0 °F 39.2 °F 11% 29.56 in - NE 10.4 mph - N/A   Clear
4:50 PM 104.0 °F 37.4 °F 10% 29.56 in - NE 10.4 mph - N/A   Clear
5:50 PM 104.0 °F 37.4 °F 10% 29.56 in - NE 9.2 mph - N/A   Clear
6:50 PM 102.2 °F 37.4 °F 11% 29.56 in - North 11.5 mph - N/A   Clear
7:50 PM 100.4 °F 37.4 °F 11% 29.59 in - North 10.4 mph - N/A   Clear
8:50 PM 98.6 °F 35.6 °F 11% 29.59 in - North 10.4 mph - N/A   Clear
9:00 PM 97 °F 29 °F 4% 29.60 in - NNW 5.8 mph - -  
9:50 PM 95.0 °F 39.2 °F 14% 29.62 in - NNE 16.1 mph - N/A   Clear
10:50 PM 93.2 °F 41.0 °F 16% 29.65 in - NNE 17.3 mph - N/A   Clear